Regional Weather Roundup
Issued by NWS

Home | Current Version | Previous Version | Text Only | Print | Product List | Glossary Off
Versions: 1 2 3 4 5 6 7 8 9 10 11 12 13 14 15 16 17 18 19 20 21 22 23 24 25 26 27 28 29 30 31 32 33 34 35 36 37 38 39 40 41 42 43 44 45 46 47 48 49 50

000
ASUS43 KFSD 250410
RWRSD

WEATHER ROUNDUP FOR SOUTH DAKOTA
NATIONAL WEATHER SERVICE SIOUX FALLS SD
1100 PM CDT WED AUG 24 2016

NOTE: "FAIR" INDICATES FEW OR NO CLOUDS BELOW 12,000 FEET WITH NO
SIGNIFICANT WEATHER AND/OR OBSTRUCTIONS TO VISIBILITY.


SDZ001>005-009-010-012>017-250500-
NORTHWEST AND NORTH CENTRAL SOUTH DAKOTA

CITY           SKY/WX    TMP DP  RH WIND       PRES   REMARKS
BUFFALO          N/A     51  44  77 W10       30.17R
FAITH            N/A     59  45  59 NW10      30.18R
MOBRIDGE       CLEAR     65  45  48 NW14      30.09R
$$

SDZ012>016-024>037-041>051-057-063-072>074-250500-
SOUTHWEST AND SOUTH CENTRAL SOUTH DAKOTA

CITY           SKY/WX    TMP DP  RH WIND       PRES   REMARKS
RAPID CTY ARPT CLOUDY    62  44  51 N12       30.22R
PIERRE         PTCLDY    62  49  62 NW6       30.08S
CUSTER         CLOUDY    56  40  55 N5        30.30R
ELLSWORTH AFB  PTCLDY    64  45  50 N15       30.21R
PHILIP         CLOUDY    63  50  62 NW6       30.14S
PINE RIDGE     MOCLDY    64  52  64 W14G22    30.24R
WINNER         FAIR      65  53  65 SW8       30.12S
$$

SDZ004>011-016>023-039-040-250500-
NORTHEAST SOUTH DAKOTA

CITY           SKY/WX    TMP DP  RH WIND       PRES   REMARKS
ABERDEEN       CLEAR     62  50  64 NW7       30.04R
WATERTOWN      CLEAR     59  55  87 S6        30.04R
BROOKINGS      CLOUDY    62  56  80 SW6       30.07
SISSETON         N/A     58  54  86 CALM      30.00R
$$

SDZ017-020-022-023-036>040-048>070-250500-
SOUTHEAST SOUTH DAKOTA

CITY           SKY/WX    TMP DP  RH WIND       PRES   REMARKS
SIOUX FALLS    CLOUDY    65  58  78 SW3       30.08S
HURON          CLEAR     63  54  72 SW8       30.06R
CHAMBERLAIN    PTCLDY    63  55  75 SW7       30.10S
MITCHELL       CLEAR     65  54  67 SW7       30.08R
YANKTON        CLEAR     61  52  72 SW3       30.07F
$$

ABBREVIATIONS USED IN REMARKS
   TC - TEMPERATURE IN CELSIUS
  WCI - WIND CHILL INDEX
   HX - HEAT INDEX
  VSB - VISIBILITY





USA.gov is the U.S. government's official web portal to all federal, state and local government web resources and services.